| time (UTC) | temp F | wind direction | speed MPH | gust MPH | rain 1hr in | rain 24hr in | rain mn in | humidity % | barometer mb |
| 20260906192127 | 79 | 355 | 2.0 | 7.0 | 0.04 | 0.06 | 0.06 | 78 | 1015.3 |
| 20260906191626 | 79 | 297 | 2.0 | 7.0 | 0.03 | 0.05 | 0.05 | 78 | 1015.3 |
| 20260906191127 | 80 | 310 | 3.0 | 7.0 | 0.03 | 0.05 | 0.05 | 77 | 1015.2 |
| 20260906190627 | 80 | 335 | 4.0 | 9.0 | 0.02 | 0.04 | 0.04 | 77 | 1015.2 |
| 20260906190128 | 81 | 345 | 5.0 | 10.0 | 0.01 | 0.03 | 0.03 | 72 | 1015.1 |
| 20260906185627 | 82 | 312 | 4.0 | 11.0 | 0.01 | 0.03 | 0.03 | 68 | 1015.0 |
| 20260906185127 | 83 | 314 | 4.0 | 11.0 | 0.00 | 0.02 | 0.02 | 66 | 1014.8 |
| 20260906184627 | 83 | 306 | 4.0 | 14.0 | 0.00 | 0.02 | 0.02 | 64 | 1014.8 |
| 20260906184127 | 83 | 348 | 3.0 | 14.0 | 0.00 | 0.02 | 0.02 | 64 | 1014.7 |
| 20260906183621 | 84 | 266 | 3.0 | 9.0 | 0.00 | 0.02 | 0.02 | 65 | 1014.7 |
| 20260906183114 | 84 | 326 | 2.0 | 6.0 | 0.00 | 0.02 | 0.02 | 63 | 1014.7 |
| 20260906182608 | 84 | 303 | 2.0 | 5.0 | 0.00 | 0.02 | 0.02 | 62 | 1014.8 |
| 20260906182109 | 84 | 341 | 1.0 | 5.0 | 0.00 | 0.02 | 0.02 | 62 | 1014.7 |
| 20260906181609 | 84 | 335 | 0.0 | 3.0 | 0.00 | 0.02 | 0.02 | 61 | 1014.7 |
| 20260906181109 | 84 | 314 | 1.0 | 4.0 | 0.00 | 0.02 | 0.02 | 61 | 1014.7 |
| 20260906180607 | 84 | 318 | 1.0 | 4.0 | 0.00 | 0.02 | 0.02 | 61 | 1014.7 |
| 20260906180106 | 84 | 324 | 1.0 | 5.0 | 0.00 | 0.02 | 0.02 | 61 | 1014.6 |
| 20260906175608 | 83 | 332 | 1.0 | 5.0 | 0.00 | 0.02 | 0.02 | 63 | 1014.6 |
| 20260906175108 | 83 | 338 | 1.0 | 4.0 | 0.00 | 0.02 | 0.02 | 64 | 1014.5 |
| 20260906174607 | 83 | 335 | 1.0 | 4.0 | 0.00 | 0.02 | 0.02 | 64 | 1014.4 |
| 20260906173832 | 83 | 357 | 0.0 | 4.0 | 0.00 | 0.02 | 0.02 | 66 | 1014.2 |
| 20260906173101 | 83 | 326 | 0.0 | 2.0 | 0.00 | 0.02 | 0.02 | 65 | 1014.2 |
| 20260906172601 | 83 | 291 | 0.0 | 2.0 | 0.00 | 0.02 | 0.02 | 67 | 1014.2 |
| 20260906172102 | 83 | 226 | 1.0 | 5.0 | 0.01 | 0.02 | 0.02 | 65 | 1014.1 |
| 20260906171601 | 83 | 276 | 2.0 | 5.0 | 0.01 | 0.02 | 0.02 | 66 | 1014.1 |
| 20260906171101 | 82 | 295 | 2.0 | 7.0 | 0.01 | 0.02 | 0.02 | 64 | 1014.1 |
| 20260906170559 | 82 | 311 | 2.0 | 7.0 | 0.01 | 0.02 | 0.02 | 64 | 1014.0 |
| 20260906170312 | 82 | 302 | 2.0 | 5.0 | 0.01 | 0.02 | 0.02 | 65 | 1013.9 |
| 20260906165547 | 82 | 298 | 1.0 | 5.0 | 0.01 | 0.02 | 0.02 | 65 | 1014.0 |
| 20260906165047 | 81 | 314 | 1.0 | 4.0 | 0.01 | 0.02 | 0.02 | 65 | 1014.0 |
| 20260906164547 | 81 | 329 | 1.0 | 3.0 | 0.01 | 0.02 | 0.02 | 65 | 1013.9 |
| 20260906164314 | 82 | 345 | 0.0 | 3.0 | 0.01 | 0.02 | 0.02 | 64 | 1013.9 |
| 20260906163547 | 82 | 29 | 0.0 | 2.0 | 0.01 | 0.02 | 0.02 | 65 | 1013.8 |
| 20260906163047 | 82 | 60 | 0.0 | 2.0 | 0.01 | 0.02 | 0.02 | 64 | 1013.7 |
| 20260906162547 | 83 | 43 | 0.0 | 1.0 | 0.01 | 0.02 | 0.02 | 63 | 1013.8 |
| 20260906162046 | 83 | 354 | 0.0 | 1.0 | 0.00 | 0.01 | 0.01 | 61 | 1013.7 |
| 20260906161547 | 83 | 355 | 0.0 | 3.0 | 0.00 | 0.01 | 0.01 | 59 | 1013.6 |
| 20260906161047 | 83 | 354 | 1.0 | 3.0 | 0.00 | 0.01 | 0.01 | 60 | 1013.5 |
| 20260906160811 | 83 | 19 | 1.0 | 3.0 | 0.00 | 0.01 | 0.01 | 59 | 1013.5 |
| 20260906160048 | 83 | 278 | 1.0 | 5.0 | 0.00 | 0.01 | 0.01 | 60 | 1013.5 |
| 20260906155544 | 82 | 306 | 1.0 | 5.0 | 0.00 | 0.01 | 0.01 | 61 | 1013.4 |
| 20260906155045 | 82 | 315 | 1.0 | 3.0 | 0.00 | 0.01 | 0.01 | 64 | 1013.3 |
| 20260906154545 | 81 | 168 | 0.0 | 3.0 | 0.00 | 0.01 | 0.01 | 69 | 1013.4 |
| 20260906154305 | 81 | 248 | 0.0 | 1.0 | 0.00 | 0.01 | 0.01 | 68 | 1013.4 |
| 20260906153545 | 81 | 248 | 0.0 | 1.0 | 0.00 | 0.01 | 0.01 | 69 | 1013.4 |
| 20260906153044 | 81 | 234 | 0.0 | 0.0 | 0.00 | 0.01 | 0.01 | 68 | 1013.2 |
| 20260906152546 | 81 | 235 | 0.0 | 1.0 | 0.00 | 0.01 | 0.01 | 67 | 1013.1 |
| 20260906152310 | 81 | 236 | 0.0 | 1.0 | 0.00 | 0.01 | 0.01 | 67 | 1013.1 |
| 20260906151815 | 81 | 236 | 0.0 | 1.0 | 0.00 | 0.01 | 0.01 | 67 | 1013.1 |
| 20260906151043 | 81 | 245 | 0.0 | 2.0 | 0.00 | 0.01 | 0.01 | 68 | 1012.9 |
| 20260906150543 | 81 | 344 | 1.0 | 2.0 | 0.00 | 0.01 | 0.01 | 67 | 1013.0 |
| 20260906150043 | 81 | 337 | 0.0 | 2.0 | 0.00 | 0.01 | 0.01 | 66 | 1012.9 |
| 20260906145543 | 81 | 5 | 0.0 | 1.0 | 0.00 | 0.01 | 0.01 | 68 | 1012.8 |
| 20260906145044 | 81 | 5 | 0.0 | 1.0 | 0.00 | 0.01 | 0.01 | 67 | 1012.5 |
| 20260906144543 | 81 | 3 | 0.0 | 1.0 | 0.00 | 0.01 | 0.01 | 68 | 1012.6 |
| 20260906144043 | 81 | 252 | 0.0 | 0.0 | 0.00 | 0.01 | 0.01 | 66 | 1012.5 |
| 20260906143538 | 81 | 252 | 0.0 | 0.0 | 0.00 | 0.01 | 0.01 | 66 | 1012.4 |
| 20260906143038 | 81 | 252 | 0.0 | 1.0 | 0.00 | 0.01 | 0.01 | 66 | 1012.3 |
| 20260906142538 | 81 | 252 | 0.0 | 1.0 | 0.00 | 0.01 | 0.01 | 67 | 1012.1 |
| 20260906142039 | 81 | 252 | 0.0 | 1.0 | 0.00 | 0.01 | 0.01 | 66 | 1012.0 |
| 20260906141806 | 81 | 252 | 0.0 | 2.0 | 0.00 | 0.01 | 0.01 | 66 | 1012.0 |
| 20260906141040 | 80 | 252 | 0.0 | 2.0 | 0.00 | 0.01 | 0.01 | 66 | 1012.0 |
| 20260906140538 | 80 | 231 | 0.0 | 2.0 | 0.00 | 0.01 | 0.01 | 68 | 1011.8 |
| 20260906140310 | 80 | 158 | 0.0 | 1.0 | 0.00 | 0.01 | 0.01 | 69 | 1011.8 |
| 20260906135539 | 80 | 140 | 0.0 | 0.0 | 0.00 | 0.01 | 0.01 | 66 | 1011.8 |
| 20260906135035 | 80 | 140 | 0.0 | 2.0 | 0.00 | 0.01 | 0.01 | 70 | 1011.8 |
| 20260906134535 | 80 | 140 | 1.0 | 2.0 | 0.00 | 0.01 | 0.01 | 68 | 1011.7 |
| 20260906134035 | 80 | 171 | 1.0 | 2.0 | 0.00 | 0.01 | 0.01 | 69 | 1011.7 |
| 20260906133534 | 80 | 167 | 0.0 | 1.0 | 0.00 | 0.01 | 0.01 | 68 | 1011.7 |
| 20260906133035 | 80 | 148 | 0.0 | 1.0 | 0.00 | 0.01 | 0.01 | 70 | 1011.7 |
| 20260906132758 | 80 | 162 | 0.0 | 1.0 | 0.00 | 0.01 | 0.01 | 68 | 1011.7 |
| 20260906132036 | 80 | 237 | 0.0 | 3.0 | 0.00 | 0.01 | 0.01 | 70 | 1011.9 |
| 20260906131536 | 80 | 236 | 1.0 | 4.0 | 0.00 | 0.01 | 0.01 | 70 | 1011.9 |
| 20260906131035 | 80 | 237 | 0.0 | 4.0 | 0.00 | 0.01 | 0.01 | 71 | 1011.8 |
| 20260906130531 | 80 | 266 | 0.0 | 1.0 | 0.00 | 0.01 | 0.01 | 70 | 1011.8 |
| 20260906130252 | 80 | 296 | 0.0 | 1.0 | 0.00 | 0.01 | 0.01 | 70 | 1011.8 |
| 20260906125759 | 80 | 295 | 0.0 | 1.0 | 0.00 | 0.01 | 0.01 | 70 | 1011.8 |
| 20260906125257 | 80 | 324 | 0.0 | 2.0 | 0.00 | 0.01 | 0.01 | 70 | 1011.9 |
| 20260906124531 | 80 | 25 | 0.0 | 2.0 | 0.01 | 0.01 | 0.01 | 68 | 1011.9 |
| 20260906124031 | 80 | 104 | 0.0 | 2.0 | 0.01 | 0.01 | 0.01 | 70 | 1011.8 |
| 20260906123759 | 80 | 91 | 0.0 | 0.0 | 0.01 | 0.01 | 0.01 | 69 | 1011.9 |
| 20260906123030 | 81 | 91 | 0.0 | 0.0 | 0.01 | 0.01 | 0.01 | 67 | 1011.7 |
| 20260906122530 | 81 | 188 | 0.0 | 0.0 | 0.01 | 0.01 | 0.01 | 63 | 1011.8 |
| 20260906121755 | 81 | 170 | 0.0 | 0.0 | 0.01 | 0.01 | 0.01 | 64 | 1011.6 |
| 20260906121032 | 81 | 170 | 0.0 | 0.0 | 0.01 | 0.01 | 0.01 | 65 | 1011.5 |
| 20260906120534 | 81 | 171 | 0.0 | 0.0 | 0.01 | 0.01 | 0.01 | 65 | 1011.6 |
| 20260906120035 | 81 | 171 | 0.0 | 0.0 | 0.01 | 0.01 | 0.01 | 68 | 1011.6 |
| 20260906115531 | 82 | 171 | 0.0 | 0.0 | 0.01 | 0.01 | 0.01 | 68 | 1011.6 |
| 20260906115032 | 82 | 178 | 0.0 | 0.0 | 0.01 | 0.01 | 0.01 | 67 | 1011.4 |
| 20260906114531 | 82 | 178 | 0.0 | 0.0 | 0.00 | 0.00 | 0.00 | 67 | 1011.4 |
| 20260906114032 | 83 | 178 | 0.0 | 0.0 | 0.00 | 0.00 | 0.00 | 65 | 1011.4 |
| 20260906113532 | 83 | 178 | 0.0 | 0.0 | 0.00 | 0.00 | 0.00 | 61 | 1011.2 |
| 20260906113031 | 83 | 178 | 0.0 | 0.0 | 0.00 | 0.00 | 0.00 | 59 | 1011.2 |
| 20260906112800 | 83 | 178 | 0.0 | 0.0 | 0.00 | 0.00 | 0.00 | 60 | 1011.3 |
| 20260906112032 | 83 | 177 | 0.0 | 0.0 | 0.00 | 0.00 | 0.00 | 63 | 1011.1 |
| 20260906111755 | 83 | 177 | 0.0 | 0.0 | 0.00 | 0.00 | 0.00 | 62 | 1011.1 |
| 20260906111033 | 83 | 177 | 0.0 | 0.0 | 0.00 | 0.00 | 0.00 | 61 | 1011.1 |
| 20260906110530 | 83 | 177 | 0.0 | 0.0 | 0.00 | 0.00 | 0.00 | 63 | 1011.0 |
| 20260906110029 | 83 | 127 | 0.0 | 0.0 | 0.00 | 0.00 | 0.00 | 64 | 1010.9 |
| 20260906105530 | 83 | 127 | 0.0 | 0.0 | 0.00 | 0.00 | 0.00 | 63 | 1010.9 |
| 20260906105258 | 83 | 127 | 0.0 | 0.0 | 0.00 | 0.00 | 0.00 | 63 | 1010.9 |
| 20260906104529 | 83 | 132 | 0.0 | 0.0 | 0.00 | 0.00 | 0.00 | 63 | 1011.0 |
| 20260906104029 | 83 | 132 | 0.0 | 0.0 | 0.00 | 0.00 | 0.00 | 62 | 1010.8 |
| 20260906103523 | 83 | 132 | 0.0 | 0.0 | 0.00 | 0.00 | 0.00 | 61 | 1010.8 |
| 20260906103244 | 84 | 132 | 0.0 | 0.0 | 0.00 | 0.00 | 0.00 | 59 | 1010.7 |
| 20260906102512 | 84 | 131 | 0.0 | 0.0 | 0.00 | 0.00 | 0.00 | 58 | 1010.8 |
| 20260906102013 | 84 | 150 | 0.0 | 0.0 | 0.00 | 0.00 | 0.00 | 57 | 1010.9 |
| 20260906101514 | 84 | 166 | 0.0 | 0.0 | 0.00 | 0.00 | 0.00 | 57 | 1010.9 |
| 20260906101011 | 84 | 185 | 0.0 | 0.0 | 0.00 | 0.00 | 0.00 | 60 | 1010.8 |
| 20260906100508 | 84 | 186 | 0.0 | 0.0 | 0.00 | 0.00 | 0.00 | 60 | 1010.8 |
| 20260906100007 | 84 | 214 | 0.0 | 0.0 | 0.00 | 0.00 | 0.00 | 62 | 1010.7 |
| 20260906095505 | 83 | 182 | 0.0 | 0.0 | 0.00 | 0.00 | 0.00 | 60 | 1010.7 |
| 20260906095001 | 83 | 182 | 0.0 | 0.0 | 0.00 | 0.00 | 0.00 | 58 | 1010.8 |
| 20260906094501 | 84 | 182 | 0.0 | 0.0 | 0.00 | 0.00 | 0.00 | 60 | 1010.6 |
| 20260906094002 | 84 | 182 | 0.0 | 0.0 | 0.00 | 0.00 | 0.00 | 63 | 1010.6 |
| 20260906093502 | 84 | 182 | 0.0 | 0.0 | 0.00 | 0.00 | 0.00 | 59 | 1010.7 |
| 20260906093002 | 85 | 182 | 0.0 | 0.0 | 0.00 | 0.00 | 0.00 | 62 | 1010.8 |
| 20260906092501 | 85 | 183 | 0.0 | 0.0 | 0.00 | 0.00 | 0.00 | 60 | 1010.8 |
| 20260906092002 | 85 | 183 | 0.0 | 0.0 | 0.00 | 0.00 | 0.00 | 52 | 1010.8 |
| 20260906091508 | 87 | 184 | 0.0 | 0.0 | 0.00 | 0.00 | 0.00 | 50 | 1010.9 |
| 20260906091001 | 87 | 184 | 0.0 | 0.0 | 0.00 | 0.00 | 0.00 | 45 | 1010.8 |
| 20260906090501 | 88 | 184 | 0.0 | 0.0 | 0.00 | 0.00 | 0.00 | 45 | 1010.8 |
| 20260906085959 | 88 | 184 | 0.0 | 0.0 | 0.00 | 0.00 | 0.00 | 41 | 1010.8 |
| 20260906085459 | 88 | 146 | 0.0 | 1.0 | 0.00 | 0.00 | 0.00 | 37 | 1010.9 |
| 20260906084952 | 89 | 146 | 0.0 | 1.0 | 0.00 | 0.00 | 0.00 | 37 | 1010.8 |
| 20260906084446 | 89 | 219 | 0.0 | 1.0 | 0.00 | 0.00 | 0.00 | 37 | 1010.8 |
| 20260906083940 | 89 | 171 | 0.0 | 1.0 | 0.00 | 0.00 | 0.00 | 37 | 1010.7 |
| 20260906083705 | 89 | 162 | 0.0 | 1.0 | 0.00 | 0.00 | 0.00 | 37 | 1010.8 |
| 20260906082930 | 89 | 148 | 0.0 | 1.0 | 0.00 | 0.00 | 0.00 | 36 | 1010.7 |
| 20260906082431 | 89 | 105 | 0.0 | 1.0 | 0.00 | 0.00 | 0.00 | 36 | 1010.8 |
| 20260906082202 | 89 | 200 | 1.0 | 2.0 | 0.00 | 0.00 | 0.00 | 36 | 1010.8 |
| 20260906081433 | 89 | 176 | 0.0 | 2.0 | 0.00 | 0.00 | 0.00 | 36 | 1010.8 |
| 20260906080931 | 89 | 209 | 0.0 | 1.0 | 0.00 | 0.00 | 0.00 | 36 | 1010.9 |
| 20260906080658 | 89 | 188 | 1.0 | 2.0 | 0.00 | 0.00 | 0.00 | 36 | 1010.8 |
| 20260906075932 | 89 | 226 | 1.0 | 2.0 | 0.00 | 0.00 | 0.00 | 37 | 1010.7 |
| 20260906075431 | 89 | 218 | 0.0 | 2.0 | 0.00 | 0.00 | 0.00 | 37 | 1010.8 |
| 20260906074930 | 89 | 154 | 0.0 | 0.0 | 0.00 | 0.00 | 0.00 | 37 | 1010.8 |
| 20260906073931 | 89 | 145 | 0.0 | 1.0 | 0.00 | 0.00 | 0.00 | 36 | 1011.0 |
| 20260906073430 | 89 | 145 | 0.0 | 1.0 | 0.00 | 0.00 | 0.00 | 37 | 1011.0 |
| 20260906072929 | 89 | 146 | 0.0 | 1.0 | 0.00 | 0.00 | 0.00 | 37 | 1011.0 |
| 20260906072429 | 89 | 158 | 0.0 | 1.0 | 0.00 | 0.00 | 0.00 | 37 | 1010.9 |
| 20260906071933 | 89 | 25 | 0.0 | 0.0 | 0.00 | 0.00 | 0.00 | 35 | 1011.0 |
| 20260906071431 | 89 | 25 | 0.0 | 0.0 | 0.00 | 0.00 | 0.00 | 35 | 1011.0 |
| 20260906071159 | 89 | 25 | 0.0 | 0.0 | 0.00 | 0.00 | 0.00 | 35 | 1010.9 |
| 20260906070424 | 90 | 25 | 0.0 | 0.0 | 0.00 | 0.00 | 0.00 | 35 | 1010.9 |
| 20260906065918 | 90 | 25 | 0.0 | 0.0 | 0.00 | 0.00 | 0.00 | 35 | 1010.7 |
| 20260906065416 | 90 | 25 | 0.0 | 0.0 | 0.00 | 0.00 | 0.00 | 35 | 1010.5 |
| 20260906065138 | 90 | 25 | 0.0 | 0.0 | 0.00 | 0.00 | 0.00 | 35 | 1010.7 |
| 20260906064403 | 90 | 25 | 0.0 | 1.0 | 0.00 | 0.00 | 0.00 | 34 | 1010.6 |
| 20260906063902 | 90 | 25 | 0.0 | 1.0 | 0.00 | 0.00 | 0.00 | 34 | 1010.6 |
| 20260906063401 | 91 | 66 | 0.0 | 1.0 | 0.00 | 0.00 | 0.00 | 34 | 1010.5 |
| 20260906062900 | 91 | 66 | 0.0 | 1.0 | 0.00 | 0.00 | 0.00 | 34 | 1010.5 |
| 20260906062403 | 91 | 67 | 0.0 | 2.0 | 0.00 | 0.00 | 0.00 | 34 | 1010.5 |
| 20260906061903 | 91 | 57 | 0.0 | 2.0 | 0.00 | 0.00 | 0.00 | 34 | 1010.6 |
| 20260906061628 | 91 | 15 | 0.0 | 1.0 | 0.00 | 0.00 | 0.00 | 33 | 1010.6 |
| 20260906060901 | 91 | 15 | 0.0 | 0.0 | 0.00 | 0.00 | 0.00 | 34 | 1010.6 |
| 20260906060402 | 91 | 15 | 0.0 | 0.0 | 0.00 | 0.00 | 0.00 | 33 | 1010.6 |
| 20260906055902 | 91 | 15 | 0.0 | 1.0 | 0.00 | 0.00 | 0.00 | 33 | 1010.4 |
| 20260906055402 | 92 | 15 | 0.0 | 2.0 | 0.00 | 0.00 | 0.00 | 33 | 1010.5 |
| 20260906054901 | 92 | 15 | 0.0 | 3.0 | 0.00 | 0.00 | 0.00 | 32 | 1010.4 |
| 20260906054402 | 92 | 108 | 1.0 | 3.0 | 0.00 | 0.00 | 0.00 | 32 | 1010.4 |
| 20260906053901 | 92 | 99 | 1.0 | 4.0 | 0.00 | 0.00 | 0.00 | 32 | 1010.3 |
| 20260906053401 | 92 | 72 | 1.0 | 4.0 | 0.00 | 0.00 | 0.00 | 32 | 1010.4 |
| 20260906052901 | 92 | 59 | 1.0 | 3.0 | 0.00 | 0.00 | 0.00 | 32 | 1010.5 |
| 20260906052402 | 92 | 76 | 1.0 | 3.0 | 0.00 | 0.00 | 0.00 | 32 | 1010.6 |
| 20260906051856 | 92 | 70 | 1.0 | 2.0 | 0.00 | 0.00 | 0.00 | 32 | 1010.6 |
| 20260906051349 | 92 | 113 | 0.0 | 2.0 | 0.00 | 0.00 | 0.00 | 32 | 1010.5 |
| 20260906050843 | 93 | 86 | 0.0 | 2.0 | 0.00 | 0.00 | 0.00 | 32 | 1010.5 |
| 20260906050338 | 93 | 103 | 0.0 | 2.0 | 0.00 | 0.00 | 0.00 | 32 | 1010.5 |
| 20260906045833 | 93 | 132 | 0.0 | 2.0 | 0.00 | 0.00 | 0.00 | 32 | 1010.6 |
| 20260906045332 | 93 | 87 | 1.0 | 3.0 | 0.00 | 0.00 | 0.00 | 32 | 1010.6 |
| 20260906044833 | 93 | 169 | 1.0 | 3.0 | 0.00 | 0.00 | 0.00 | 32 | 1010.6 |
| 20260906044604 | 93 | 185 | 1.0 | 3.0 | 0.00 | 0.00 | 0.00 | 32 | 1010.7 |
| 20260906043833 | 93 | 168 | 0.0 | 1.0 | 0.00 | 0.00 | 0.00 | 31 | 1010.5 |
| 20260906043332 | 93 | 117 | 0.0 | 1.0 | 0.00 | 0.00 | 0.00 | 31 | 1010.6 |
| 20260906042832 | 93 | 70 | 0.0 | 2.0 | 0.00 | 0.00 | 0.00 | 31 | 1010.4 |
| 20260906042336 | 94 | 70 | 0.0 | 2.0 | 0.00 | 0.00 | 0.00 | 31 | 1010.5 |
| 20260906042058 | 94 | 80 | 0.0 | 2.0 | 0.00 | 0.00 | 0.00 | 31 | 1010.4 |
| 20260906041336 | 94 | 83 | 1.0 | 4.0 | 0.00 | 0.00 | 0.00 | 31 | 1010.5 |
| 20260906040834 | 94 | 65 | 1.0 | 4.0 | 0.00 | 0.00 | 0.00 | 30 | 1010.3 |
| 20260906040333 | 94 | 63 | 1.0 | 7.0 | 0.00 | 0.00 | 0.00 | 31 | 1010.3 |
| 20260906035830 | 94 | 44 | 2.0 | 7.0 | 0.00 | 0.00 | 0.00 | 30 | 1010.2 |
| 20260906035329 | 94 | 81 | 2.0 | 7.0 | 0.00 | 0.00 | 0.00 | 31 | 1010.2 |
| 20260906034829 | 94 | 51 | 1.0 | 4.0 | 0.00 | 0.00 | 0.00 | 31 | 1010.1 |
| 20260906034330 | 95 | 64 | 1.0 | 4.0 | 0.00 | 0.00 | 0.00 | 31 | 1009.9 |
| 20260906033829 | 95 | 65 | 1.0 | 4.0 | 0.00 | 0.00 | 0.00 | 31 | 1009.8 |
| 20260906033329 | 95 | 2 | 1.0 | 4.0 | 0.00 | 0.00 | 0.00 | 31 | 1009.9 |
| 20260906032829 | 96 | 177 | 2.0 | 5.0 | 0.00 | 0.00 | 0.00 | 33 | 1009.8 |
| 20260906032329 | 96 | 139 | 3.0 | 7.0 | 0.00 | 0.00 | 0.00 | 33 | 1009.6 |
| 20260906031829 | 96 | 242 | 2.0 | 7.0 | 0.00 | 0.00 | 0.00 | 33 | 1009.6 |
| 20260906031330 | 96 | 260 | 3.0 | 7.0 | 0.00 | 0.00 | 0.00 | 33 | 1009.7 |
| 20260906030828 | 96 | 210 | 3.0 | 7.0 | 0.00 | 0.00 | 0.00 | 32 | 1009.7 |
| 20260906030331 | 96 | 240 | 4.0 | 7.0 | 0.00 | 0.00 | 0.00 | 32 | 1009.6 |
| 20260906025832 | 96 | 223 | 5.0 | 9.0 | 0.00 | 0.00 | 0.00 | 32 | 1009.4 |
| 20260906025329 | 96 | 240 | 7.0 | 11.0 | 0.00 | 0.00 | 0.00 | 32 | 1009.4 |
| 20260906024829 | 97 | 225 | 7.0 | 11.0 | 0.00 | 0.00 | 0.00 | 31 | 1009.3 |
| 20260906024330 | 97 | 269 | 6.0 | 10.0 | 0.00 | 0.00 | 0.00 | 31 | 1009.4 |
| 20260906023829 | 97 | 268 | 4.0 | 9.0 | 0.00 | 0.00 | 0.00 | 31 | 1009.4 |
| 20260906023331 | 97 | 251 | 5.0 | 11.0 | 0.00 | 0.00 | 0.00 | 30 | 1009.3 |
| 20260906022830 | 97 | 302 | 6.0 | 11.0 | 0.00 | 0.00 | 0.00 | 30 | 1009.4 |
| 20260906022554 | 97 | 254 | 4.0 | 10.0 | 0.00 | 0.00 | 0.00 | 30 | 1009.5 |
| 20260906021829 | 97 | 256 | 4.0 | 8.0 | 0.00 | 0.00 | 0.00 | 30 | 1009.5 |
| 20260906021556 | 97 | 317 | 3.0 | 7.0 | 0.00 | 0.00 | 0.00 | 30 | 1009.5 |
| 20260906020829 | 97 | 309 | 2.0 | 7.0 | 0.00 | 0.00 | 0.00 | 30 | 1009.5 |
| 20260906020330 | 97 | 282 | 1.0 | 6.0 | 0.00 | 0.00 | 0.00 | 30 | 1009.5 |
| 20260906015829 | 97 | 49 | 1.0 | 3.0 | 0.00 | 0.00 | 0.00 | 28 | 1009.4 |
| 20260906015329 | 97 | 169 | 0.0 | 3.0 | 0.00 | 0.00 | 0.00 | 24 | 1009.4 |
| 20260906014829 | 97 | 80 | 1.0 | 4.0 | 0.00 | 0.00 | 0.00 | 23 | 1009.4 |
| 20260906014329 | 98 | 77 | 1.0 | 4.0 | 0.00 | 0.00 | 0.00 | 23 | 1009.4 |
| 20260906013829 | 98 | 151 | 1.0 | 3.0 | 0.00 | 0.00 | 0.00 | 22 | 1009.4 |
| 20260906013331 | 98 | 181 | 1.0 | 5.0 | 0.00 | 0.00 | 0.00 | 22 | 1009.5 |
| 20260906012833 | 99 | 56 | 0.0 | 5.0 | 0.00 | 0.00 | 0.00 | 22 | 1009.5 |
| 20260906012330 | 99 | 62 | 1.0 | 5.0 | 0.00 | 0.00 | 0.00 | 22 | 1009.4 |
| 20260906011829 | 99 | 54 | 1.0 | 5.0 | 0.00 | 0.00 | 0.00 | 22 | 1009.5 |
| 20260906011552 | 99 | 53 | 2.0 | 5.0 | 0.00 | 0.00 | 0.00 | 21 | 1009.5 |
| 20260906010829 | 100 | 172 | 2.0 | 6.0 | 0.00 | 0.00 | 0.00 | 21 | 1009.6 |
| 20260906010330 | 100 | 66 | 2.0 | 6.0 | 0.00 | 0.00 | 0.00 | 21 | 1009.5 |
| 20260906010054 | 100 | 89 | 2.0 | 5.0 | 0.00 | 0.00 | 0.00 | 20 | 1009.5 |
| 20260906005330 | 100 | 108 | 2.0 | 4.0 | 0.00 | 0.00 | 0.00 | 20 | 1009.5 |
| 20260906004828 | 101 | 31 | 1.0 | 4.0 | 0.00 | 0.00 | 0.00 | 19 | 1009.4 |
| 20260906004329 | 101 | 99 | 1.0 | 5.0 | 0.00 | 0.00 | 0.00 | 20 | 1009.5 |
| 20260906003826 | 100 | 26 | 1.0 | 5.0 | 0.00 | 0.00 | 0.00 | 20 | 1009.4 |
| 20260906003551 | 100 | 68 | 2.0 | 5.0 | 0.00 | 0.00 | 0.00 | 20 | 1009.5 |
| 20260906003047 | 100 | 84 | 2.0 | 6.0 | 0.00 | 0.00 | 0.00 | 19 | 1009.3 |
| 20260906002320 | 100 | 91 | 2.0 | 7.0 | 0.00 | 0.00 | 0.00 | 20 | 1009.4 |
| 20260906001818 | 101 | 54 | 2.0 | 7.0 | 0.00 | 0.00 | 0.00 | 19 | 1009.3 |
| 20260906001319 | 101 | 50 | 2.0 | 7.0 | 0.00 | 0.00 | 0.00 | 19 | 1009.4 |
| 20260906000817 | 101 | 74 | 2.0 | 6.0 | 0.00 | 0.00 | 0.00 | 19 | 1009.5 |
| 20260906000318 | 101 | 63 | 3.0 | 6.0 | 0.00 | 0.00 | 0.00 | 19 | 1009.4 |
| 20260906000041 | 101 | 94 | 2.0 | 6.0 | 0.00 | 0.00 | 0.00 | 19 | 1009.4 |
| 20260905235316 | 101 | 42 | 2.0 | 5.0 | 0.00 | 0.00 | 0.00 | 19 | 1009.5 |
| 20260905234816 | 101 | 96 | 2.0 | 6.0 | 0.00 | 0.00 | 0.00 | 17 | 1009.5 |
| 20260905234314 | 101 | 89 | 2.0 | 6.0 | 0.00 | 0.00 | 0.00 | 18 | 1009.5 |
| 20260905234040 | 101 | 44 | 2.0 | 6.0 | 0.00 | 0.00 | 0.00 | 18 | 1009.5 |
| 20260905233314 | 101 | 92 | 2.0 | 6.0 | 0.00 | 0.00 | 0.00 | 18 | 1009.4 |
| 20260905232814 | 101 | 70 | 2.0 | 6.0 | 0.00 | 0.00 | 0.00 | 18 | 1009.5 |
| 20260905232315 | 101 | 79 | 2.0 | 6.0 | 0.00 | 0.00 | 0.00 | 18 | 1009.6 |
| 20260905231814 | 100 | 79 | 2.0 | 6.0 | 0.00 | 0.00 | 0.00 | 19 | 1009.6 |
| 20260905231537 | 100 | 114 | 2.0 | 6.0 | 0.00 | 0.00 | 0.00 | 19 | 1009.7 |
| 20260905230812 | 100 | 101 | 1.0 | 5.0 | 0.00 | 0.00 | 0.00 | 19 | 1009.7 |
| 20260905230310 | 99 | 69 | 2.0 | 7.0 | 0.00 | 0.00 | 0.00 | 19 | 1009.7 |
| 20260905230027 | 99 | 115 | 2.0 | 7.0 | 0.00 | 0.00 | 0.00 | 18 | 1009.9 |
| 20260905225306 | 98 | 127 | 3.0 | 7.0 | 0.00 | 0.00 | 0.00 | 18 | 1009.8 |
| 20260905224803 | 98 | 85 | 2.0 | 6.0 | 0.00 | 0.00 | 0.00 | 18 | 1009.9 |
| 20260905224304 | 98 | 127 | 3.0 | 6.0 | 0.00 | 0.00 | 0.00 | 18 | 1010.0 |
| 20260905223805 | 98 | 82 | 3.0 | 6.0 | 0.00 | 0.00 | 0.00 | 18 | 1010.1 |
| 20260905223304 | 98 | 91 | 2.0 | 5.0 | 0.00 | 0.00 | 0.00 | 18 | 1010.0 |
| 20260905222805 | 99 | 85 | 2.0 | 6.0 | 0.00 | 0.00 | 0.00 | 17 | 1009.9 |
| 20260905222306 | 99 | 83 | 2.0 | 6.0 | 0.00 | 0.00 | 0.00 | 17 | 1010.1 |
| 20260905221804 | 99 | 77 | 3.0 | 10.0 | 0.00 | 0.00 | 0.00 | 17 | 1010.1 |
| 20260905221303 | 99 | 78 | 3.0 | 10.0 | 0.00 | 0.00 | 0.00 | 17 | 1010.3 |
| 20260905220803 | 99 | 92 | 3.0 | 9.0 | 0.00 | 0.00 | 0.00 | 16 | 1010.3 |
| 20260905220302 | 99 | 174 | 3.0 | 9.0 | 0.00 | 0.00 | 0.00 | 17 | 1010.3 |
| 20260905215804 | 99 | 70 | 3.0 | 7.0 | 0.00 | 0.00 | 0.00 | 17 | 1010.3 |
| 20260905215305 | 99 | 113 | 2.0 | 7.0 | 0.00 | 0.00 | 0.00 | 17 | 1010.3 |
| 20260905214803 | 99 | 37 | 3.0 | 8.0 | 0.00 | 0.00 | 0.00 | 17 | 1010.4 |
| 20260905214301 | 99 | 66 | 3.0 | 8.0 | 0.00 | 0.00 | 0.00 | 17 | 1010.5 |
| 20260905213802 | 99 | 101 | 3.0 | 7.0 | 0.00 | 0.00 | 0.00 | 16 | 1010.5 |
| 20260905213302 | 100 | 60 | 3.0 | 7.0 | 0.00 | 0.00 | 0.00 | 16 | 1010.7 |
| 20260905212759 | 100 | 109 | 3.0 | 7.0 | 0.00 | 0.00 | 0.00 | 16 | 1010.7 |
| 20260905212252 | 100 | 75 | 3.0 | 7.0 | 0.00 | 0.00 | 0.00 | 15 | 1010.7 |
| 20260905211746 | 100 | 108 | 3.0 | 7.0 | 0.00 | 0.00 | 0.00 | 15 | 1010.7 |
| 20260905211508 | 100 | 96 | 2.0 | 6.0 | 0.00 | 0.00 | 0.00 | 16 | 1010.8 |
| 20260905211009 | 101 | 63 | 2.0 | 6.0 | 0.00 | 0.00 | 0.00 | 15 | 1010.8 |
| 20260905210239 | 101 | 75 | 2.0 | 6.0 | 0.00 | 0.00 | 0.00 | 15 | 1010.9 |
| 20260905205739 | 101 | 62 | 1.0 | 6.0 | 0.00 | 0.00 | 0.00 | 16 | 1011.0 |
| 20260905205238 | 101 | 109 | 2.0 | 7.0 | 0.00 | 0.00 | 0.00 | 15 | 1011.1 |
| 20260905204739 | 101 | 84 | 2.0 | 7.0 | 0.00 | 0.00 | 0.00 | 15 | 1011.1 |
| 20260905204238 | 100 | 167 | 2.0 | 6.0 | 0.00 | 0.00 | 0.00 | 16 | 1011.3 |
| 20260905203738 | 100 | 348 | 2.0 | 8.0 | 0.00 | 0.00 | 0.00 | 15 | 1011.2 |
| 20260905203238 | 101 | 79 | 2.0 | 8.0 | 0.00 | 0.00 | 0.00 | 15 | 1011.3 |
| 20260905202738 | 100 | 218 | 1.0 | 5.0 | 0.00 | 0.00 | 0.00 | 15 | 1011.3 |
| 20260905202237 | 100 | 105 | 1.0 | 5.0 | 0.00 | 0.00 | 0.00 | 15 | 1011.4 |
| 20260905201738 | 101 | 170 | 2.0 | 9.0 | 0.00 | 0.00 | 0.00 | 14 | 1011.6 |
| 20260905201236 | 101 | 154 | 2.0 | 9.0 | 0.00 | 0.00 | 0.00 | 14 | 1011.5 |
| 20260905201006 | 101 | 96 | 1.0 | 4.0 | 0.00 | 0.00 | 0.00 | 14 | 1011.5 |
| 20260905200504 | 101 | 165 | 1.0 | 3.0 | 0.00 | 0.00 | 0.00 | 14 | 1011.6 |
| 20260905195733 | 100 | 309 | 1.0 | 2.0 | 0.00 | 0.00 | 0.00 | 14 | 1011.6 |
| 20260905195233 | 100 | 30 | 1.0 | 2.0 | 0.00 | 0.00 | 0.00 | 15 | 1011.7 |
| 20260905195003 | 100 | 354 | 1.0 | 5.0 | 0.00 | 0.00 | 0.00 | 15 | 1011.8 |
| 20260905194230 | 99 | 76 | 2.0 | 5.0 | 0.00 | 0.00 | 0.00 | 14 | 1011.9 |
| 20260905193957 | 99 | 38 | 1.0 | 5.0 | 0.00 | 0.00 | 0.00 | 14 | 1011.9 |
| 20260905193231 | 100 | 119 | 1.0 | 5.0 | 0.00 | 0.00 | 0.00 | 14 | 1012.0 |
| 20260905192730 | 99 | 157 | 1.0 | 4.0 | 0.00 | 0.00 | 0.00 | 15 | 1012.1 |